Wind_Speed
24 23 23 23 24 23 22 20 19 19 19 20 20 20 20 20 20 19 18 18 18 18 18 18 18 19 19 19 19 19 18 18 18 17 17 17 17 17 17 17 17 17 17 17 17 17 18 17 17
24 24 24 24 24 24 22 21 21 21 21 21 22 22 21 21 21 21 20 20 20 21 21 20 20 21 21 21 21 21 21 20 20 20 20 19 19 18 18 18 18 18 18 18 18 18 18 19 18
25 25 25 26 25 24 23 23 23 23 24 24 24 24 23 23 23 23 23 23 23 23 23 23 23 23 23 23 23 23 23 22 22 22 22 21 21 20 20 20 20 20 19 19 19 19 19 19 19
25 26 27 27 26 25 25 24 25 25 25 25 26 26 25 25 25 25 25 25 25 25 26 26 25 25 25 25 25 25 25 24 24 24 23 23 23 22 22 22 21 21 21 21 20 20 21 20 20
26 27 27 27 27 26 26 26 27 27 27 27 27 27 27 27 27 27 27 27 27 27 27 28 27 27 27 27 27 27 26 26 25 25 25 24 24 24 24 23 23 23 22 22 22 21 22 22 21
26 27 27 26 26 26 27 27 28 28 28 28 28 29 28 28 29 29 28 28 28 28 29 29 29 29 29 29 29 29 28 28 27 27 27 26 26 26 26 25 25 25 24 24 23 23 23 23 23
28 28 27 27 26 27 27 27 28 28 28 29 30 30 30 30 30 30 30 30 30 30 30 30 30 31 31 31 31 31 31 30 29 29 29 28 28 28 27 27 27 27 26 26 26 26 25 25 25
28 29 28 28 28 28 28 28 29 29 29 30 31 31 31 31 31 31 31 32 32 32 31 31 32 32 33 33 33 33 33 32 31 30 30 29 29 29 28 28 28 28 28 28 28 27 28 27 27
29 30 30 29 29 29 29 29 30 30 31 32 33 33 32 32 32 32 32 33 33 33 33 33 34 33 34 35 35 35 34 34 33 32 31 31 30 30 30 29 30 30 29 29 29 29 29 29 29
30 30 30 30 31 30 30 31 31 32 33 34 34 34 34 34 34 34 34 34 34 34 35 35 35 36 36 36 36 36 35 35 34 33 33 32 32 31 31 31 31 31 31 31 31 31 31 32 31
31 31 31 32 32 32 32 32 33 34 34 35 35 36 35 35 35 35 35 35 35 36 35 36 37 37 37 37 37 37 36 36 36 35 34 34 33 32 32 32 32 33 33 33 33 33 34 34 34
31 31 31 32 33 33 33 34 35 35 35 36 37 37 37 37 37 37 37 37 37 37 37 37 37 37 37 37 37 37 37 38 37 36 35 35 34 34 34 33 33 33 34 34 35 35 35 36 36
31 32 32 33 33 34 35 35 35 35 35 36 37 37 37 37 37 38 37 37 38 38 38 38 38 37 37 37 38 38 38 38 37 36 36 35 34 34 34 34 35 35 35 36 36 37 37 37 38
32 32 33 33 34 34 35 35 35 34 35 36 36 37 37 37 37 37 37 37 38 38 38 38 38 38 37 37 38 39 39 38 38 38 37 36 35 35 36 36 37 37 37 38 38 38 38 39 38
31 32 33 34 34 35 35 35 35 35 36 36 37 37 37 37 37 37 37 37 37 38 39 38 38 38 38 38 38 40 40 39 40 39 38 38 38 37 37 38 38 38 39 39 39 39 39 39 40
31 32 33 33 34 35 36 36 35 36 36 36 37 37 37 37 38 38 38 37 37 38 39 40 39 40 40 39 39 40 41 40 40 40 39 39 39 39 37 39 40 39 40 40 39 39 40 40 41
30 32 32 33 34 35 36 36 35 36 36 36 36 37 37 37 37 37 38 38 37 38 39 40 40 40 41 41 40 40 40 40 40 40 40 39 39 39 39 40 40 41 41 40 40 40 40 41 41
30 31 32 32 33 35 36 36 36 36 36 36 36 36 36 37 37 37 37 37 37 38 38 38 39 40 41 41 40 39 39 40 40 40 40 41 41 41 42 42 41 42 41 40 40 40 41 41 42
30 30 30 31 32 34 35 35 35 35 35 35 35 35 35 36 36 36 36 36 36 36 37 37 38 39 40 41 41 40 40 40 40 41 42 42 41 41 43 43 42 40 40 40 40 40 41 41 42
28 29 29 30 31 33 33 33 33 34 34 34 35 35 34 34 34 35 35 36 36 36 37 38 39 39 40 40 41 41 40 40 39 40 40 41 42 42 42 41 41 41 41 41 41 41 41 41 41
28 29 29 30 30 31 32 32 31 31 33 33 33 34 33 33 34 34 35 36 36 37 37 38 39 38 38 38 39 40 39 39 38 38 40 40 41 41 41 40 41 41 41 41 41 40 41 40 41
28 28 29 29 29 29 30 31 28 28 29 30 31 32 32 33 33 34 34 35 37 37 37 37 38 37 38 38 38 38 37 38 38 38 39 39 40 40 40 40 41 41 41 40 41 41 41 39 40
28 28 29 29 29 29 29 31 27 27 27 28 29 30 31 32 33 33 34 34 35 36 36 36 36 36 36 36 36 37 37 37 37 37 37 38 38 38 40 40 40 41 41 41 40 40 40 40 40
27 28 28 29 29 29 28 29 27 26 26 26 28 29 30 31 32 33 33 33 33 34 34 34 34 33 34 35 35 36 37 36 36 36 37 37 38 39 40 40 40 40 42 42 40 41 40 40 40
28 28 28 29 29 29 28 28 27 26 26 25 26 26 27 29 30 31 32 32 32 33 33 33 33 32 33 33 34 35 35 35 36 36 36 37 39 40 40 40 39 39 40 41 41 41 40 40 40
27 27 27 29 29 28 28 28 27 25 25 24 25 25 26 26 28 29 30 30 30 31 32 32 32 32 32 32 32 33 34 34 35 36 36 37 38 39 39 40 40 39 40 40 40 41 41 40 39
26 25 25 28 28 28 27 27 26 25 23 23 24 25 26 26 26 27 28 28 29 29 30 31 31 31 30 31 30 31 32 33 35 36 35 36 37 36 37 38 38 39 40 39 39 39 40 40 39
25 23 24 25 27 28 26 25 24 23 23 23 24 24 25 26 25 26 26 27 28 28 29 29 29 29 28 29 30 30 31 33 35 35 35 35 35 35 36 37 38 38 38 38 38 37 37 37 37
23 23 23 25 26 26 26 24 23 23 23 23 24 24 24 25 25 26 26 26 26 27 28 29 28 28 28 29 29 30 31 32 33 34 34 34 34 34 34 35 36 36 36 36 36 36 35 36 37
23 23 23 24 26 26 26 23 23 23 23 24 24 24 24 24 25 25 26 26 26 27 27 28 29 29 29 30 30 30 31 31 32 33 33 32 33 33 33 35 35 35 35 35 36 36 35 35 36
Wind_Direction
245 247 249 251 253 255 255 254 255 255 256 257 258 259 259 260 260 262 263 263 263 263 265 266 268 268 268 268 270 271 272 271 270 269 269 266 265 265 265 265 265 265 266 266 268 269 271 270 273
246 248 250 252 255 256 256 256 257 257 256 257 258 258 259 260 261 261 262 263 263 264 266 266 267 268 268 269 270 271 270 270 269 269 269 267 266 265 265 265 264 264 264 266 268 269 271 271 274
248 249 252 253 255 256 257 257 258 257 256 257 259 259 260 261 262 263 264 264 264 265 267 268 268 268 269 269 270 270 270 269 269 269 268 267 264 263 264 265 265 264 265 265 267 268 269 270 272
249 251 253 254 255 256 257 258 259 258 257 258 260 260 261 263 264 265 265 265 265 267 268 268 268 269 269 269 270 270 269 268 268 268 267 265 263 262 263 263 264 265 265 267 267 268 269 270 270
250 252 254 256 257 258 259 260 259 257 256 258 259 261 262 263 264 265 265 266 267 268 268 268 268 270 271 270 270 269 269 268 267 267 267 265 262 261 262 262 261 261 263 266 266 268 270 269 270
252 253 256 257 258 258 259 260 259 258 256 257 259 260 262 263 264 264 265 266 267 268 270 269 269 269 270 270 269 268 268 268 267 267 266 264 261 260 261 260 260 259 260 263 265 267 268 269 269
254 255 257 258 259 258 259 260 260 259 258 258 260 262 263 263 264 264 264 266 267 268 270 270 269 270 270 269 268 268 267 266 266 266 266 264 262 259 259 260 259 259 259 261 264 265 265 267 268
254 255 257 259 260 261 260 261 262 260 259 259 261 262 263 263 264 265 264 265 267 268 269 270 270 270 269 268 267 267 266 266 265 265 266 265 263 260 259 259 259 259 259 261 262 264 265 265 267
254 256 257 259 260 261 262 262 262 261 260 261 261 263 263 264 264 265 266 267 267 268 269 270 270 270 269 268 266 266 266 265 264 264 264 265 264 261 260 260 260 259 260 261 262 264 265 265 267
256 257 257 259 260 261 262 262 263 263 262 262 262 263 264 265 265 266 267 268 269 270 269 269 270 270 268 268 266 265 265 265 264 263 264 264 264 262 260 260 261 261 261 261 262 263 265 266 267
258 259 259 260 261 262 263 263 264 263 263 262 262 263 265 266 267 267 268 268 269 270 270 269 269 270 269 268 266 264 264 264 264 264 264 265 265 263 261 261 262 262 262 262 263 264 264 266 267
260 260 261 261 262 263 264 264 264 264 263 263 263 264 266 266 267 266 267 267 269 270 271 270 268 269 268 267 266 265 264 264 265 265 264 265 265 263 262 263 263 262 263 263 263 264 265 266 268
261 261 262 262 262 264 265 265 265 264 264 264 264 265 266 266 267 266 266 267 269 270 271 271 269 268 267 267 266 266 265 263 264 264 264 264 264 262 261 263 264 263 263 264 264 264 264 266 268
263 262 262 263 264 265 265 265 265 265 265 264 265 265 265 266 266 266 266 267 268 269 270 271 269 267 267 267 266 266 265 263 263 263 262 262 261 260 262 264 264 264 264 264 265 265 265 267 268
265 264 264 264 265 265 266 265 266 265 265 265 265 265 265 267 267 267 267 268 269 269 269 269 268 267 267 267 265 265 265 263 263 263 261 261 260 262 263 264 264 265 265 266 267 267 267 268 269
267 266 266 266 266 266 267 266 266 265 266 266 266 265 265 266 267 268 268 270 271 271 269 268 268 268 268 267 265 265 264 263 263 262 260 260 260 261 263 264 263 265 265 266 267 268 268 269 270
270 268 268 268 268 268 267 267 266 266 267 267 266 265 265 266 267 268 269 270 271 272 271 269 269 268 268 268 266 264 263 263 262 262 260 259 260 261 262 262 262 264 265 266 267 268 269 270 271
273 272 271 271 270 270 270 269 267 267 267 266 265 265 265 266 267 269 270 271 272 273 273 271 270 269 269 267 266 265 263 262 262 262 260 261 261 261 262 262 263 263 265 266 267 269 270 270 270
274 274 274 273 273 272 271 270 269 268 267 265 265 265 266 267 269 269 271 272 273 273 274 273 271 271 271 267 264 264 262 263 263 263 263 262 261 260 261 261 262 263 264 265 267 268 270 270 270
275 275 274 274 274 275 274 273 272 269 267 265 265 265 266 267 269 270 271 273 273 275 276 274 273 273 272 268 264 263 263 263 264 264 263 263 261 261 260 260 261 263 264 265 266 268 269 270 269
275 275 276 276 275 275 276 275 274 270 267 266 265 265 266 267 268 270 272 273 274 275 275 275 275 274 272 268 265 265 265 264 265 266 265 265 264 263 261 261 262 263 264 265 266 268 270 269 269
275 276 277 277 277 277 279 279 275 272 269 266 265 265 266 268 270 272 274 274 276 276 276 275 276 275 271 268 266 265 266 265 264 266 265 265 264 262 262 263 263 263 264 264 265 266 268 270 269
277 278 278 278 278 278 279 280 278 273 270 268 266 265 266 268 270 272 274 276 277 277 276 276 276 275 270 268 267 267 266 265 265 265 265 266 264 264 265 264 264 262 262 264 265 266 268 269 270
279 279 280 279 279 279 280 281 278 276 274 271 269 268 268 269 270 272 274 276 277 278 276 275 278 276 273 271 269 267 266 266 264 264 265 264 264 266 267 265 264 263 262 262 264 266 267 269 268
280 279 280 281 280 280 281 281 280 278 276 274 273 272 271 272 274 275 277 278 278 278 277 276 278 277 275 272 270 267 265 265 265 264 265 267 266 268 267 266 264 263 262 262 264 266 268 268 267
281 280 282 282 281 281 281 280 281 278 276 275 275 276 276 277 278 279 280 280 280 279 278 278 279 277 274 272 270 269 267 265 265 266 267 268 269 268 268 266 264 262 263 264 266 267 266 267 268
280 279 282 284 282 283 283 281 281 279 276 276 277 279 279 280 282 283 282 281 281 280 278 279 280 279 275 271 270 269 268 266 266 268 269 271 270 268 267 266 264 263 264 264 266 268 266 266 269
279 279 280 283 284 284 284 282 281 280 278 277 278 280 282 283 284 285 284 282 282 282 280 279 280 278 274 272 271 271 270 268 267 268 270 270 268 267 266 265 264 264 263 264 267 268 267 268 269
280 277 280 283 284 283 284 284 283 283 279 278 279 281 283 285 286 286 286 284 283 283 282 278 278 277 275 273 272 272 272 269 267 267 269 268 268 267 265 264 265 265 264 266 268 268 268 269 269
282 279 279 282 285 282 283 285 285 283 281 280 280 281 283 284 285 285 285 285 284 284 282 279 278 278 276 273 272 272 273 272 270 269 267 267 266 266 265 266 265 265 266 268 269 268 268 268 269
Height
5810 5812 5814 5815 5817 5817 5819 5821 5822 5823 5824 5825 5826 5826 5827 5829 5830 5833 5832 5831 5831 5831 5832 5832 5832 5832 5833 5833 5833 5834 5834 5834 5835 5835 5836 5837 5837 5838 5839 5839 5840 5840 5841 5841 5841 5842 5842 5843 5843
5806 5808 5810 5811 5812 5813 5815 5817 5818 5819 5820 5821 5821 5822 5823 5824 5825 5826 5826 5826 5827 5827 5828 5828 5828 5828 5829 5829 5829 5829 5829 5830 5830 5831 5831 5832 5833 5834 5834 5835 5836 5836 5837 5837 5838 5838 5838 5839 5839
5802 5804 5806 5806 5807 5809 5811 5813 5814 5814 5815 5816 5817 5818 5819 5820 5820 5821 5821 5822 5822 5823 5823 5823 5824 5824 5824 5824 5824 5824 5825 5825 5825 5826 5826 5827 5828 5829 5830 5831 5831 5832 5833 5833 5834 5834 5834 5835 5835
5798 5799 5801 5802 5803 5805 5807 5808 5809 5809 5810 5811 5812 5813 5814 5815 5815 5816 5816 5817 5817 5817 5818 5818 5818 5819 5819 5819 5819 5819 5819 5819 5820 5820 5820 5821 5822 5823 5824 5825 5826 5827 5828 5829 5829 5830 5830 5831 5831
5792 5794 5795 5796 5798 5800 5801 5802 5803 5803 5804 5806 5807 5807 5808 5809 5809 5810 5810 5811 5811 5812 5812 5812 5812 5813 5813 5813 5813 5813 5813 5814 5814 5814 5814 5815 5816 5817 5819 5820 5821 5822 5823 5824 5824 5825 5825 5826 5826
5788 5788 5790 5791 5793 5795 5796 5796 5797 5797 5798 5800 5800 5801 5802 5803 5803 5804 5804 5804 5805 5805 5806 5806 5806 5806 5806 5807 5807 5807 5807 5807 5808 5808 5808 5809 5810 5811 5812 5814 5815 5816 5817 5818 5819 5820 5820 5821 5821
5783 5783 5784 5786 5787 5789 5790 5790 5791 5792 5792 5793 5794 5795 5796 5797 5797 5797 5797 5798 5798 5798 5799 5799 5799 5799 5799 5799 5800 5800 5800 5800 5801 5801 5801 5802 5803 5804 5806 5807 5808 5810 5811 5813 5814 5815 5815 5816 5816
5776 5778 5778 5780 5781 5783 5784 5784 5785 5786 5787 5787 5788 5788 5789 5790 5790 5790 5791 5791 5791 5791 5791 5791 5791 5792 5792 5792 5792 5793 5793 5793 5794 5794 5795 5795 5796 5797 5799 5800 5802 5803 5804 5806 5807 5808 5809 5810 5811
5769 5772 5772 5774 5775 5776 5777 5778 5779 5779 5780 5780 5781 5781 5782 5783 5783 5783 5784 5784 5783 5783 5783 5783 5783 5783 5784 5784 5784 5785 5785 5785 5786 5787 5788 5788 5789 5790 5792 5793 5795 5796 5798 5799 5800 5802 5803 5804 5804
5763 5764 5766 5767 5768 5769 5770 5771 5772 5772 5773 5773 5774 5774 5774 5775 5775 5776 5776 5776 5776 5776 5775 5775 5775 5775 5775 5775 5775 5776 5777 5777 5778 5779 5780 5781 5782 5783 5784 5786 5788 5789 5790 5792 5793 5794 5796 5796 5797
5755 5757 5759 5760 5760 5761 5762 5763 5764 5765 5766 5766 5766 5766 5767 5767 5767 5767 5767 5767 5767 5767 5766 5766 5766 5766 5766 5766 5766 5767 5768 5769 5769 5770 5772 5773 5774 5775 5777 5778 5780 5781 5783 5784 5785 5787 5787 5788 5790
5749 5750 5751 5752 5752 5753 5754 5755 5756 5757 5758 5758 5758 5758 5759 5759 5759 5759 5759 5759 5758 5757 5757 5757 5757 5757 5757 5757 5757 5758 5759 5760 5761 5762 5763 5764 5766 5767 5769 5771 5772 5773 5775 5776 5777 5778 5779 5780 5781
5741 5742 5743 5744 5744 5744 5745 5746 5747 5748 5749 5749 5749 5749 5750 5750 5749 5749 5749 5749 5749 5748 5747 5747 5747 5747 5748 5748 5748 5749 5750 5751 5752 5753 5754 5756 5757 5759 5761 5763 5764 5765 5766 5768 5769 5770 5771 5772 5773
5734 5734 5735 5736 5736 5736 5737 5738 5739 5740 5740 5740 5741 5741 5741 5740 5740 5740 5740 5740 5739 5739 5738 5738 5738 5738 5738 5739 5739 5739 5740 5742 5743 5744 5745 5747 5748 5751 5753 5754 5755 5757 5758 5759 5760 5761 5762 5762 5763
5726 5727 5727 5728 5728 5728 5728 5729 5730 5731 5731 5731 5732 5732 5732 5731 5731 5731 5731 5731 5730 5729 5729 5728 5728 5728 5729 5729 5729 5730 5731 5732 5733 5735 5736 5738 5740 5742 5743 5745 5746 5748 5749 5750 5750 5751 5752 5753 5753
5719 5719 5720 5720 5720 5720 5721 5722 5722 5721 5722 5722 5723 5723 5723 5723 5722 5722 5722 5721 5720 5720 5719 5719 5718 5719 5718 5718 5719 5720 5721 5722 5724 5725 5727 5729 5731 5733 5734 5735 5737 5738 5739 5740 5741 5742 5742 5743 5743
5712 5712 5712 5712 5712 5711 5711 5712 5713 5712 5712 5713 5713 5713 5714 5714 5714 5713 5713 5712 5711 5710 5709 5709 5709 5708 5708 5708 5708 5709 5711 5712 5714 5716 5717 5719 5721 5722 5724 5725 5727 5728 5729 5730 5731 5732 5732 5733 5733
5705 5705 5704 5704 5703 5703 5702 5703 5704 5703 5703 5704 5704 5704 5704 5705 5705 5704 5704 5703 5702 5701 5700 5699 5699 5698 5698 5697 5698 5699 5701 5702 5704 5706 5707 5709 5711 5712 5714 5715 5716 5717 5719 5720 5720 5721 5721 5722 5722
5698 5697 5697 5696 5695 5694 5694 5694 5695 5695 5695 5695 5695 5695 5696 5696 5695 5695 5694 5694 5693 5692 5691 5690 5689 5688 5687 5687 5688 5689 5691 5693 5695 5696 5698 5699 5700 5702 5704 5705 5706 5707 5708 5709 5710 5710 5710 5711 5710
5690 5690 5689 5689 5687 5686 5686 5686 5686 5686 5685 5686 5686 5686 5687 5687 5687 5686 5686 5685 5684 5683 5682 5680 5679 5678 5677 5677 5677 5678 5681 5683 5685 5686 5687 5688 5690 5691 5692 5694 5695 5696 5697 5698 5699 5700 5700 5700 5699
5683 5683 5682 5681 5680 5678 5677 5678 5678 5677 5676 5677 5677 5677 5678 5678 5678 5678 5677 5677 5675 5674 5673 5671 5670 5669 5668 5667 5668 5669 5671 5673 5674 5676 5677 5678 5679 5680 5681 5683 5684 5685 5686 5688 5688 5689 5689 5689 5689
5677 5676 5674 5673 5672 5671 5670 5669 5671 5669 5668 5668 5668 5669 5669 5670 5670 5670 5669 5668 5667 5665 5664 5662 5661 5660 5659 5659 5659 5660 5662 5664 5665 5666 5668 5668 5669 5670 5671 5672 5673 5675 5676 5677 5678 5678 5678 5678 5678
5670 5669 5668 5666 5665 5664 5663 5661 5663 5662 5661 5661 5661 5661 5661 5662 5662 5662 5661 5660 5658 5657 5655 5654 5652 5651 5650 5650 5651 5652 5653 5654 5655 5656 5658 5658 5658 5659 5661 5661 5662 5664 5665 5666 5667 5667 5668 5668 5668
5663 5662 5661 5659 5658 5658 5657 5655 5655 5655 5654 5654 5654 5654 5654 5654 5654 5653 5652 5651 5650 5648 5647 5646 5644 5643 5642 5642 5642 5643 5644 5645 5646 5647 5648 5648 5649 5650 5650 5651 5652 5653 5654 5655 5656 5657 5657 5657 5657
5657 5656 5655 5653 5651 5652 5651 5648 5650 5649 5648 5648 5648 5648 5647 5647 5646 5645 5644 5643 5642 5640 5639 5638 5636 5635 5634 5634 5634 5635 5636 5636 5637 5638 5639 5639 5640 5640 5640 5640 5641 5642 5644 5645 5646 5646 5647 5647 5647
5650 5649 5649 5647 5645 5645 5644 5642 5644 5643 5642 5641 5642 5641 5641 5640 5639 5638 5636 5635 5634 5633 5631 5630 5629 5628 5626 5626 5626 5627 5627 5627 5628 5629 5629 5629 5629 5630 5630 5630 5631 5632 5633 5635 5635 5636 5636 5636 5636
5644 5643 5643 5641 5639 5638 5638 5637 5638 5637 5636 5636 5635 5635 5634 5633 5632 5631 5629 5628 5626 5625 5624 5623 5621 5620 5619 5618 5618 5618 5618 5619 5619 5619 5619 5619 5619 5619 5619 5620 5621 5622 5623 5624 5625 5626 5626 5626 5626
5639 5638 5637 5634 5632 5631 5631 5631 5632 5631 5631 5630 5630 5629 5628 5627 5625 5624 5622 5621 5619 5618 5617 5615 5614 5613 5612 5611 5610 5610 5610 5610 5610 5610 5610 5610 5610 5610 5610 5611 5612 5613 5613 5614 5615 5616 5616 5617 5617
5634 5633 5631 5629 5627 5626 5624 5629 5627 5626 5625 5624 5624 5622 5621 5620 5618 5617 5615 5614 5612 5610 5609 5608 5607 5606 5605 5604 5603 5602 5602 5601 5601 5601 5600 5600 5600 5601 5601 5602 5603 5603 5604 5605 5606 5606 5607 5607 5608
5628 5627 5626 5625 5623 5620 5619 5625 5622 5620 5619 5618 5617 5616 5614 5613 5611 5610 5608 5607 5605 5603 5602 5600 5600 5599 5598 5596 5595 5594 5593 5592 5592 5591 5591 5591 5592 5592 5593 5593 5593 5594 5595 5596 5596 5597 5597 5598 5598